Location: Rancho Del Sol Observatory
(38.7214°N, 120.6350°W)
Time: 13:43:55
(UTC-07:00)

Daily predictions for brighter satellites

Satellite Brightness Start Highest point End
(mag) Time Altitude Azimuth Time Altitude Azimuth Time Altitude Azimuth
Cosmos 1624 Rocket 4.1 19:08:10 10° N 19:13:17 54° ENE 19:18:21 10° SSE
SL-16 R/B 2.2 19:19:06 10° S 19:24:42 65° ESE 19:30:21 10° NNE
BREEZE-M TANK 3.7 19:12:16 10° WNW 19:25:09 76° SSW 19:28:44 10° SE
Cosmos 1953 3.5 19:22:45 10° SE 19:25:48 22° E 19:28:53 10° NE
Cosmos 292 Rocket 4.5 19:22:27 10° SSW 19:27:10 59° WNW 19:31:57 10° N
USA 215 3.3 19:23:00 10° NE 19:29:29 63° SE 19:35:56 10° SSW
ATLAS CENTAUR R/B 3.3 19:27:10 10° SSW 19:31:33 69° ESE 19:45:08 10° NE
Helios 1A 3.7 19:29:56 10° SE 19:33:40 32° ENE 19:37:24 10° N
BREEZE-M DEB (TANK) 4.2 19:31:39 10° WNW 19:35:08 66° SW 19:46:29 10° SE
Cosmos 1805 4.1 19:32:53 10° SSE 19:36:14 28° E 19:39:37 10° NNE
H-2A R/B 4.5 19:36:26 13° E 19:38:01 16° ENE 19:40:23 10° NNE
Cosmos 1072 Rocket 4.4 19:32:46 10° S 19:38:48 67° E 19:44:52 10° NNE
Cosmos 1378 3.1 19:35:32 10° N 19:39:14 64° E 19:42:56 10° SSE
CZ-4B DEB 4.5 19:39:33 15° E 19:40:37 17° ENE 19:42:50 10° NNE
SeaSat 1 3.8 19:37:45 10° ENE 19:40:59 17° ESE 19:44:12 10° SE
COSMO-SKYMED 1 3.9 19:36:59 10° N 19:41:07 44° WNW 19:45:13 10° SW
Meteor 1-28 Rocket 3.1 19:38:40 10° NNE 19:42:24 88° ESE 19:46:07 10° SSW
Cosmos 1452 Rocket 4.0 19:37:40 10° N 19:42:35 39° ENE 19:47:28 10° SE
METEOR-M 4.2 19:39:26 10° SSE 19:44:42 62° ENE 19:49:59 10° N
ALOS 3.1 19:43:12 10° SE 19:47:14 30° ENE 19:51:17 10° N
OAO 3 Rocket 3.5 19:43:08 10° WSW 19:47:45 52° S 19:51:10 18° ESE
Meteor 1-22 Rocket 4.3 19:45:23 10° SSW 19:50:45 74° W 19:56:03 10° N
Cosmos 2278 Rocket 3.6 19:45:42 10° NW 19:50:57 40° WSW 19:56:10 10° S
FREGAT/IRIS 2.8 19:50:18 10° S 19:53:23 77° WSW 19:56:29 10° NNW
FENGYUN 3A 4.2 19:48:56 10° SE 19:53:49 37° ENE 19:58:44 10° N
Cosmos 2297 3.8 19:50:27 10° NNW 19:56:07 78° WSW 20:01:44 10° SSE
Cosmos 724 4.4 19:51:28 10° S 19:57:09 52° ESE 20:03:01 10° NE
SJ-6B 3.5 19:53:34 10° S 19:57:26 58° W 20:01:27 10° NNW
NOSS 3-2 (A) 3.7 19:55:32 10° SW 20:01:34 72° NW 20:08:09 10° NNE
Cosmos 1766 Rocket 3.4 19:57:36 10° N 20:01:59 68° E 20:06:17 10° SSE
Meteor 1-24 Rocket 4.3 19:56:28 10° NNW 20:02:01 59° W 20:07:20 10° S
CZ-4C R/B 4.2 20:01:38 10° W 20:06:11 27° NW 20:11:14 10° NNE
Cosmos 1758 3.2 20:03:12 10° S 20:07:15 73° E 20:11:21 10° NNE
Cosmos 1943 4.5 20:04:44 10° SSE 20:14:49 - NE 20:07:18 20° SE
Cosmos 2369 Rocket 3.5 20:05:31 10° N 20:09:41 21° NE 20:10:43 20° ENE
Cosmos 1603 3.7 20:06:19 10° S 20:11:55 60° ESE 20:17:34 10° NNE
Cosmos 2034 Rocket 3.9 20:07:02 10° S 20:13:17 85° E 20:19:38 10° N
Timation 1 Rocket 4.5 20:09:39 10° NNW 20:15:38 77° WSW 20:21:34 10° SSE
GPS 2-04 Rocket1 3.9 20:12:55 10° SSW 20:15:36 22° SSE 20:15:36 22° SSE
Cosmos 1464 Rocket 4.3 20:09:33 10° SSW 20:15:47 68° W 20:21:58 10° N
Cosmos 1943 Rocket 4.2 20:15:23 10° NNE 20:16:36 11° NE 20:16:46 11° NE
Cosmos 1076 Rocket 4.0 20:13:50 10° NNW 20:18:07 62° W 20:22:24 10° S
Helios 1B rocket 2.9 20:15:14 10° N 20:19:18 63° WNW 20:23:21 10° SSW
Cosmos 1269 Rocket 4.0 20:14:15 10° S 20:19:22 54° ESE 20:24:31 10° NNE
Spot 2 Rocket 3.8 20:16:24 10° S 20:21:24 66° WSW 20:26:25 10° NNW
Cosmos-2242 3.0 20:17:23 10° S 20:21:44 87° W 20:26:09 10° N
Cosmos 1048 Rocket 4.1 20:18:24 10° S 20:23:31 50° ESE 20:28:36 10° NNE
ASTEX 1 3.3 20:20:19 10° NNE 20:25:11 60° E 20:30:00 10° S
SL-8 R/B 3.8 20:21:52 10° SW 20:26:31 55° SE 20:27:44 42° E
Cosmos 1674 3.3 20:23:50 10° N 20:26:55 39° NE 20:26:55 39° NE
FengYun 1-2 T 4.3 20:22:05 10° S 20:27:36 80° WSW 20:33:07 10° NNW
Envisat 4.4 20:33:30 22° NE 20:33:30 22° NE 20:36:24 10° NNE
Cosmos 1842 Rocket 3.5 20:32:04 46° SE 20:32:59 57° E 20:37:15 10° NNE
Cosmos 1346 4.0 20:30:15 10° N 20:32:16 39° N 20:32:16 39° N
ASTRO E2 4.0 20:29:49 10° WSW 20:33:18 28° S 20:33:29 28° S
Abrixas 4.1 20:32:26 10° SW 20:33:58 26° SSW 20:33:58 26° SSW
Cosmos 1500 Rocket 3.6 20:31:48 10° N 20:36:10 55° E 20:36:15 55° E
CENTAUR R/B 2.6 20:32:53 10° S 20:38:31 45° ESE 20:40:44 33° ENE
NOSS 3-2 (C) 4.3 20:33:32 10° SW 20:39:26 50° NW 20:45:52 10° NNE
ATLAS CENTAUR R/B 4.2 20:40:47 10° W 20:42:32 13° WSW 20:44:14 10° SW
Meteor 1-21 Rocket 4.5 20:40:06 10° NNW 20:45:37 67° W 20:51:05 10° S
Resurs 01 Rocket 3.4 20:42:36 10° SSW 20:46:36 32° W 20:50:37 10° NNW
Atlas Centaur 2 4.2 20:40:51 10° W 20:47:51 29° SSW 20:51:30 21° SSE
CZ-2D R/B 3.8 20:53:48 52° SW 20:54:20 58° W 20:58:11 10° NNW
ATLAS 5 CENTAUR R/B 3.3 20:52:52 10° WSW 20:57:16 35° NW 21:02:02 10° NNE
ISS -0.4 20:54:51 10° SW 20:55:00 11° SW 20:55:00 11° SW
Cosmos 1743 Rocket 4.5 20:59:58 10° NNW 21:04:14 46° W 21:05:51 31° SW
H-2A R/B 4.2 21:11:42 34° WSW 21:12:02 35° W 21:15:38 10° NNW
USA 215 4.4 21:06:15 10° NE 21:12:15 40° NNW 21:18:14 10° W
ERS-1 Rocket 3.7 21:14:56 42° N 21:14:56 42° N 21:18:21 10° N
GP-B 4.0 21:13:07 10° N 21:16:19 44° NNW 21:16:19 44° NNW
SeaSat 1 3.0 21:13:56 10° NNE 21:18:46 57° WNW 21:23:35 10° SW
ALOS 4.3 21:21:24 13° SW 21:24:38 25° W 21:28:30 10° NW
Cosmos 1655 Rocket 4.1 21:21:47 10° N 21:26:58 62° NNE 21:26:58 62° NNE
Cosmos 2026 Rocket 4.4 21:42:45 10° NNW 21:47:56 58° NW 21:47:56 58° NW
Cosmos 2369 Rocket 3.2 21:48:33 10° NNW 21:52:32 43° NW 21:52:32 43° NW
Cosmos 1943 Rocket 3.8 21:55:48 10° NNW 21:58:18 27° NNW 21:58:18 27° NNW
CENTAUR R/B 4.0 22:23:44 10° WSW 22:33:45 17° N 22:35:30 10° NNE
